Location: Moscow Spring
(35.8685°N, 117.4744°W)
Time: 19:25:55
(UTC+00:00)

Daily predictions for brighter satellites

Satellite Brightness Start Highest point End
(mag) Time Altitude Azimuth Time Altitude Azimuth Time Altitude Azimuth
SJ 16-02 1.8 12:22:31 52° SSE 12:22:31 52° SSE 12:25:45 10° SSE
SL-16 R/B 2.6 12:24:24 47° NNW 12:24:24 47° NNW 12:28:47 10° NNE
Cosmos 1110 Rocket 4.2 12:20:42 10° S 12:25:56 72° ESE 12:31:13 10° NNE
Cosmos 1869 4.5 12:31:43 29° SSE 12:31:43 29° SSE 12:33:35 10° S
Aureole 3 4.0 12:28:35 10° SSW 12:34:27 64° W 12:39:21 10° N
Cosmos 304 Rocket 3.6 12:38:59 58° NW 12:39:43 69° WSW 12:44:25 10° S
OAO 1 4.4 12:39:25 51° W 12:40:49 84° S 12:46:17 10° E
Cosmos 371 Rocket 3.1 12:39:49 52° NW 12:40:51 70° WSW 12:45:38 10° S
Cosmos 2346 Rocket 4.4 12:37:45 10° SSW 12:43:45 56° W 12:49:43 10° N
Cosmos 2233 Rocket 4.1 12:42:19 21° NNW 12:46:18 47° W 12:52:11 10° SSW
SKYMED 2 4.5 12:46:36 10° SSE 12:50:47 49° ENE 12:54:58 10° N
Cosmos 1400 Rocket 3.5 12:47:26 10° N 12:50:59 47° E 12:54:29 10° SSE
Cosmos 2061 Rocket 4.1 12:46:52 10° NNW 12:52:45 47° W 12:58:38 10° SSW
SL-16 R/B 4.4 12:50:20 10° SW 12:50:50 12° SW 12:50:50 12° SW
Cosmos 1674 Rocket 3.5 12:52:12 10° S 12:56:37 87° E 13:01:03 10° N
Cosmos 1818 3.7 12:52:50 10° SSW 12:58:13 76° ESE 13:03:39 10° NNE
H-2A R/B 3.1 13:00:05 18° SSW 13:01:06 22° S 13:05:20 10° ESE
Cosmos 1464 Rocket 4.4 12:57:07 10° N 13:03:12 63° E 13:09:14 10° SSE
Cosmos 1452 Rocket 3.4 12:58:15 10° SSW 13:03:26 70° WNW 13:08:40 10° NNE
Cosmos 1331 Rocket 4.2 13:04:53 10° SW 13:09:55 46° WNW 13:14:57 10° N
Cosmos 1943 3.1 13:04:37 10° SSW 13:10:10 66° WNW 13:15:46 10° NNE
Cosmos 332 Rocket 4.3 13:05:57 10° N 13:10:40 58° ENE 13:15:20 10° SSE
Atlas Centaur 2 4.4 13:05:10 10° SSW 13:11:28 27° SSE 13:17:01 10° ESE
Cosmos 1850 Rocket 4.2 13:08:07 10° NNW 13:13:17 74° ENE 13:18:27 10° SSE
Chandra Rocket (1) 4.2 13:09:51 16° WSW 13:13:40 38° S 13:27:54 10° ESE
Cosmos 2369 Rocket 2.1 13:08:49 10° NNW 13:14:31 79° WSW 13:20:12 10° SSE
NOAA 12 4.0 13:09:43 10° N 13:15:00 67° WNW 13:20:14 10° SSW
CZ-4 R/B 3.8 13:10:22 10° N 13:15:02 57° WNW 13:19:36 10° SSW
Cosmos 2297 3.6 13:09:57 10° NNW 13:15:36 80° WSW 13:21:12 10° SSE
Meteor 1-11 4.2 13:11:12 10° SSW 13:17:02 72° W 13:22:53 10° N
Cosmos 1603 4.1 13:11:42 10° S 13:17:22 67° ESE 13:23:03 10° NNE
SWARM A 4.3 13:14:37 10° SSW 13:17:50 50° W 13:21:04 10° N
Cosmos 1378 Rocket 4.2 13:18:14 10° SW 13:22:01 30° WNW 13:25:49 10° NNW
Cosmos 2221 Rocket 3.5 13:21:58 10° SSW 13:26:26 68° W 13:30:58 10° N
Cosmos 2151 Rocket 3.7 13:30:03 10° NNW 13:34:23 51° W 13:38:39 10° SSW
Cosmos 1072 Rocket 4.5 13:30:43 10° NNW 13:36:47 62° W 13:42:53 10° S
Lacrosse 5 rocket 2.4 13:34:29 10° NNW 13:37:27 29° NE 13:40:21 10° ESE
Lacrosse 4 Rocket 3.1 13:36:31 10° N 13:39:56 28° ENE 13:43:19 10° ESE
CBERS-1 4.3 13:34:52 10° NNE 13:39:59 74° ESE 13:45:03 10° S
Okean 1 Rocket 2.9 13:37:16 10° NNW 13:41:33 70° W 13:45:48 10° S
Hubble Space Telescope 2.7 13:39:12 10° SW 13:42:08 21° S 13:45:04 10° ESE
Helios 1A Rocket 2.9 13:40:23 10° S 13:43:32 38° W 13:46:43 10° NNW
USA 267 4.2 13:39:21 10° NNE 13:44:39 27° NNW 13:49:57 10° W
Sich 1 Rocket 3.6 13:42:08 10° NNW 13:46:35 61° W 13:50:57 10° S
Cosmos 1484 Rocket 2.6 13:45:14 10° N 13:48:40 52° WNW 13:52:02 10° SSW
Cosmos 968 Rocket 4.1 13:44:30 10° NW 13:49:17 36° W 13:54:02 10° SSW
COSMO-SKYMED 1 2.7 13:45:25 10° S 13:49:22 46° W 13:53:20 10° NNW
SMAP 4.1 13:46:17 10° NNE 13:50:49 51° E 13:55:20 10° S
ATLAS 3B R/B 4.1 13:51:16 10° W 13:56:45 21° NW 14:02:24 10° N
BREEZE-M DEB (TANK) 3.6 13:56:00 10° WNW 13:58:16 23° N 14:02:00 10° NE
CENTAUR R/B 3.6 13:49:46 10° NW 13:58:24 59° WSW 14:07:37 10° S
SL-8 R/B 3.8 13:54:26 10° WSW 13:59:08 58° NNW 14:03:50 10° NE
Cosmos 292 Rocket 3.8 13:54:46 10° NNW 13:59:34 87° ENE 14:04:18 10° SSE
IGS 5A 3.4 13:58:37 10° N 14:02:31 58° WNW 14:06:24 10° SSW
NOSS 2-2 (C) 4.1 13:58:03 10° NW 14:02:32 74° WSW 14:08:55 10° SSE
